Weather History for K82V - January, 2014

Change the Weather History Date:

Saturday, January 25, 2014

  Actual Average (KCYS) Record (KCYS)
Temperature  
Mean Temperature 44 °F 28 °F  
Max Temperature 55 °F 39 °F 61 °F (1935)
Min Temperature 33 °F 18 °F -21 °F (1902)
Degree Days  
Heating Degree Days 21 36  
Month to date heating degree days 901  
Since 1 July heating degree days 3804  
Cooling Degree Days 0 0  
Month to date cooling degree days 0  
Year to date cooling degree days 0  
Moisture  
Dew Point 19 °F    
Average Humidity 42    
Maximum Humidity 56    
Minimum Humidity 23    
Precipitation  
Precipitation 0.00 in 0.01 in 1.18 in (1980)
Month to date precipitation 0.26  
Year to date precipitation 0.26  
Snow  
Snow 0.00 in 0.20 in 12.00 in (1980)
Month to date snowfall 4.7  
Since 1 July snowfall 27.4  
Snow Depth -    
Sea Level Pressure  
Sea Level Pressure 30.03 in    
Wind  
Wind Speed 15 mph (WNW)    
Max Wind Speed 29 mph    
Max Gust Speed 34 mph    
Visibility 10 miles    
Events      
T = Trace of Precipitation, MM = Missing Value Source: NWS Daily Summary

Daily Weather History Graph

Daily Weather History Graph

Search for Another Location

Airport or City:

Trip Planner

Search our weather history database for the weather conditions in past years. The results will help you decide how hot, cold, wet, or windy it might be!

Date:

Astronomy

Jan. 25, 2014 Rise Set
Actual Time 7:13 AM MST 5:04 PM MST
Civil Twilight 6:43 AM MST 5:34 PM MST
Nautical Twilight 6:10 AM MST 6:07 PM MST
Astronomical Twilight 5:37 AM MST 6:40 PM MST
Moon 1:48 AM MST (1/25) 12:07 PM MST (1/25)
Length of Visible Light 10h 50m
Length of Day
9h 51m
Waning Crescent, 33% of the Moon is Illuminated
Jan 25
Waning Crescent
Jan 30
New
Feb 6
First Quarter
Feb 14
Full
Feb 22
Last Quarter

Hourly Weather History & Observations

Time (MST) Temp. Windchill Dew Point Humidity Pressure Visibility Wind Dir Wind Speed Gust Speed Precip Events Conditions
12:15 AM 35.6 °F 28.6 °F 17.6 °F 48% 30.15 in 10.0 mi West 9.2 mph 18.4 mph N/A   Clear
12:35 AM 33.8 °F 25.3 °F 19.4 °F 56% 30.15 in 10.0 mi West 11.5 mph - N/A   Clear
12:55 AM 33.8 °F 24.8 °F 19.4 °F 56% 30.15 in 10.0 mi West 12.7 mph - N/A   Clear
1:15 AM 33.8 °F 25.3 °F 19.4 °F 56% 30.15 in 10.0 mi West 11.5 mph - N/A   Clear
1:35 AM 33.8 °F 24.3 °F 19.4 °F 56% 30.15 in 10.0 mi West 13.8 mph - N/A   Clear
1:55 AM 35.6 °F 25.5 °F 19.4 °F 52% 30.15 in 10.0 mi West 17.3 mph - N/A   Clear
2:15 AM 35.6 °F 25.9 °F 17.6 °F 48% 30.15 in 10.0 mi West 16.1 mph - N/A   Clear
2:35 AM 35.6 °F 26.2 °F 17.6 °F 48% 30.15 in 10.0 mi West 15.0 mph - N/A   Scattered Clouds
2:55 AM 33.8 °F 24.3 °F 19.4 °F 56% 30.15 in 10.0 mi West 13.8 mph - N/A   Scattered Clouds
3:15 AM 35.6 °F 25.5 °F 17.6 °F 48% 30.14 in 10.0 mi WNW 17.3 mph - N/A   Clear
3:35 AM 35.6 °F 25.5 °F 15.8 °F 44% 30.14 in 10.0 mi West 17.3 mph - N/A   Clear
3:55 AM 35.6 °F 26.2 °F 15.8 °F 44% 30.14 in 10.0 mi West 15.0 mph - N/A   Clear
4:15 AM 37.4 °F 28.5 °F 14.0 °F 38% 30.14 in 10.0 mi West 15.0 mph - N/A   Clear
4:35 AM 33.8 °F 25.8 °F 15.8 °F 48% 30.14 in 10.0 mi West 10.4 mph - N/A   Clear
4:55 AM 33.8 °F 24.8 °F 17.6 °F 52% 30.15 in 10.0 mi West 12.7 mph - N/A   Clear
5:15 AM 33.8 °F 23.9 °F 17.6 °F 52% 30.15 in 10.0 mi West 15.0 mph - N/A   Clear
5:35 AM 35.6 °F 25.9 °F 17.6 °F 48% 30.14 in 10.0 mi West 16.1 mph - N/A   Clear
5:55 AM 35.6 °F 24.8 °F 17.6 °F 48% 30.13 in 10.0 mi WNW 19.6 mph - N/A   Clear
6:15 AM 35.6 °F 24.5 °F 17.6 °F 48% 30.13 in 10.0 mi WNW 20.7 mph - N/A   Clear
6:35 AM 35.6 °F 25.5 °F 17.6 °F 48% 30.13 in 10.0 mi WNW 17.3 mph - N/A   Clear
6:55 AM 33.8 °F 24.3 °F 17.6 °F 52% 30.13 in 10.0 mi WNW 13.8 mph - N/A   Clear
7:15 AM 33.8 °F 24.8 °F 17.6 °F 52% 30.14 in 10.0 mi WNW 12.7 mph - N/A   Clear
7:35 AM 33.8 °F 24.3 °F 17.6 °F 52% 30.13 in 10.0 mi WNW 13.8 mph - N/A   Clear
7:55 AM 35.6 °F 24.8 °F 17.6 °F 48% 30.13 in 10.0 mi WNW 19.6 mph 24.2 mph N/A   Clear
8:15 AM 37.4 °F 27.5 °F 17.6 °F 45% 30.12 in 10.0 mi WNW 18.4 mph - N/A   Clear
8:35 AM 39.2 °F 29.8 °F 17.6 °F 42% 30.13 in 10.0 mi WNW 18.4 mph 24.2 mph N/A   Clear
8:55 AM 41.0 °F 32.5 °F 17.6 °F 39% 30.12 in 10.0 mi WNW 17.3 mph 21.9 mph N/A   Clear
9:15 AM 41.0 °F 32.8 °F 17.6 °F 39% 30.12 in 10.0 mi WNW 16.1 mph 20.7 mph N/A   Clear
9:35 AM 44.6 °F 36.6 °F 17.6 °F 34% 30.11 in 10.0 mi NW 19.6 mph 26.5 mph N/A   Clear
9:55 AM 46.4 °F 38.3 °F 17.6 °F 32% 30.11 in 10.0 mi NW 23.0 mph 28.8 mph N/A   Clear
10:15 AM 50.0 °F - 19.4 °F 30% 30.10 in 10.0 mi NW 28.8 mph 34.5 mph N/A   Clear
10:35 AM 50.0 °F - 19.4 °F 30% 30.09 in 10.0 mi NW 27.6 mph 33.4 mph N/A   Clear
10:55 AM 51.8 °F - 19.4 °F 28% 30.08 in 10.0 mi WNW 28.8 mph 33.4 mph N/A   Clear
11:15 AM 51.8 °F - 19.4 °F 28% 30.07 in 10.0 mi NW 26.5 mph 31.1 mph N/A   Clear
11:35 AM 51.8 °F - 19.4 °F 28% 30.06 in 10.0 mi NW 23.0 mph 32.2 mph N/A   Clear
11:55 AM 53.6 °F - 21.2 °F 28% 30.05 in 10.0 mi NW 23.0 mph 31.1 mph N/A   Clear
12:15 PM 53.6 °F - 21.2 °F 28% 30.03 in 10.0 mi NW 24.2 mph 31.1 mph N/A   Clear
12:35 PM 53.6 °F - 23.0 °F 30% 30.02 in 10.0 mi NW 25.3 mph 29.9 mph N/A   Clear
12:55 PM 53.6 °F - 19.4 °F 26% 30.00 in 10.0 mi NW 18.4 mph 23.0 mph N/A   Clear
1:15 PM 55.4 °F - 19.4 °F 25% 29.99 in 10.0 mi NW 20.7 mph 27.6 mph N/A   Clear
1:35 PM 55.4 °F - 17.6 °F 23% 29.98 in 10.0 mi NNW 19.6 mph 26.5 mph N/A   Clear
1:55 PM 55.4 °F - 19.4 °F 25% 29.97 in 10.0 mi NW 21.9 mph 25.3 mph N/A   Clear
2:15 PM 55.4 °F - 19.4 °F 25% 29.95 in 10.0 mi NW 23.0 mph 27.6 mph N/A   Clear
2:35 PM 55.4 °F - 19.4 °F 25% 29.95 in 10.0 mi NW 18.4 mph - N/A   Clear
2:55 PM 55.4 °F - 19.4 °F 25% 29.95 in 10.0 mi NW 18.4 mph 26.5 mph N/A   Clear
3:15 PM 55.4 °F - 19.4 °F 25% 29.95 in 10.0 mi WNW 19.6 mph 28.8 mph N/A   Clear
3:35 PM 53.6 °F - 19.4 °F 26% 29.94 in 10.0 mi NW 18.4 mph 27.6 mph N/A   Clear
3:55 PM 53.6 °F - 21.2 °F 28% 29.94 in 10.0 mi NW 21.9 mph 27.6 mph N/A   Clear
4:15 PM 51.8 °F - 21.2 °F 30% 29.94 in 10.0 mi NW 17.3 mph 25.3 mph N/A   Clear
4:35 PM 50.0 °F - 19.4 °F 30% 29.94 in 10.0 mi WNW 19.6 mph 25.3 mph N/A   Clear
4:55 PM 46.4 °F 40.1 °F 19.4 °F 34% 29.94 in 10.0 mi WNW 15.0 mph - N/A   Clear
5:15 PM 42.8 °F 37.0 °F 19.4 °F 39% 29.95 in 10.0 mi West 10.4 mph - N/A   Clear
5:35 PM 41.0 °F 34.7 °F 19.4 °F 42% 29.94 in 10.0 mi WNW 10.4 mph - N/A   Clear
5:55 PM 37.4 °F 32.1 °F 19.4 °F 48% 29.94 in 10.0 mi West 6.9 mph - N/A   Clear
6:15 PM 33.8 °F 27.7 °F 19.4 °F 56% 29.94 in 10.0 mi West 6.9 mph - N/A   Clear
6:35 PM 35.6 °F 28.6 °F 21.2 °F 56% 29.94 in 10.0 mi West 9.2 mph - N/A   Clear
6:55 PM 39.2 °F 32.0 °F 19.4 °F 45% 29.93 in 10.0 mi WNW 11.5 mph - N/A   Clear
7:15 PM 41.0 °F 34.7 °F 19.4 °F 42% 29.93 in 10.0 mi WNW 10.4 mph - N/A   Clear
7:35 PM 39.2 °F 37.0 °F 19.4 °F 45% 29.93 in 10.0 mi SW 3.5 mph - N/A   Clear
7:55 PM 37.4 °F 32.1 °F 19.4 °F 48% 29.92 in 10.0 mi South 6.9 mph - N/A   Clear
8:15 PM 35.6 °F 30.7 °F 19.4 °F 52% 29.92 in 10.0 mi South 5.8 mph - N/A   Clear
8:35 PM 35.6 °F 31.7 °F 19.4 °F 52% 29.91 in 10.0 mi SW 4.6 mph - N/A   Clear
8:55 PM 41.0 °F 38.0 °F 19.4 °F 42% 29.91 in 10.0 mi WNW 4.6 mph - N/A   Clear
9:15 PM 37.4 °F 34.9 °F 19.4 °F 48% 29.91 in 10.0 mi West 3.5 mph - N/A   Clear
9:35 PM 35.6 °F 31.7 °F 19.4 °F 52% 29.91 in 10.0 mi West 4.6 mph - N/A   Clear
9:55 PM 35.6 °F 29.2 °F 19.4 °F 52% 29.91 in 10.0 mi WNW 8.1 mph - N/A   Clear
10:15 PM 37.4 °F 29.8 °F 19.4 °F 48% 29.91 in 10.0 mi NW 11.5 mph - N/A   Clear
10:35 PM 37.4 °F 28.9 °F 19.4 °F 48% 29.92 in 10.0 mi WNW 13.8 mph - N/A   Clear
10:55 PM 37.4 °F 27.8 °F 19.4 °F 48% 29.92 in 10.0 mi WNW 17.3 mph 21.9 mph N/A   Clear
11:15 PM 41.0 °F 32.2 °F 19.4 °F 42% 29.92 in 10.0 mi WNW 18.4 mph 24.2 mph N/A   Clear
11:35 PM 41.0 °F 31.9 °F 19.4 °F 42% 29.92 in 10.0 mi WNW 19.6 mph 26.5 mph N/A   Clear
11:55 PM 41.0 °F 31.6 °F 21.2 °F 45% 29.92 in 10.0 mi NW 20.7 mph 26.5 mph N/A   Clear